KCVG Airport Diagram

We have created a template for each of the higher traffic airports in the vZID airspace. They include KCMH, KCRW, KCVG, KDAY, KIND, KLEX and KSDF. You wil find usefull information including the airport diagram, weather, and specific airport procedures.

KCVG Weather

[Source: ADDS]
METAR
KCVG 251852Z 22009KT 10SM SCT055 SCT130 BKN250 29/17 A3003 RMK AO2 SLP160 T02940172 =
KCVG 251727Z 2518/2624 24012G24KT P6SM SCT040 BKN200 FM252200 24010KT P6SM BKN250 FM261000 23006KT P6SM BKN250 FM261500 25009KT P6SM BKN200 FM262100 26010KT P6SM -SHRA VCTS BKN050CB
TAF
KCVG 251727Z 2518/2624 24012G24KT P6SM SCT040 BKN200 FM252200 24010KT P6SM BKN250 FM261000 23006KT P6SM BKN250 FM261500 25009KT P6SM BKN200 FM262100 26010KT P6SM -SHRA VCTS BKN050CB =

KCVG Operations

Calm Wind Configuration is Landing runways 36C and 36R, departing runway 27.

You can expect  this configuration up to and including a 10 knot tailwind.

The Center runway is the old 18R/36L in the default scenery. Additionally, runway 9/27 was lengthened to 12,000 feet when the west runway (18R/36L) was added.

Where parallel taxiways exist, inner taxiway is used by inbound traffic and outer taxiway is used by outbound traffic.

FDX & UPS use the ramp area at Terminal 1.

New Scenery is available at FlightSim.com.

On initial contact, arriving aircraft should notify the the controller which scenery they have.

 

JSN Epic template designed by JoomlaShine.com